Wind_Speed
15 15 15 13 12 12 13 12 12 11 13 12 8 13 14 8 7 9 14 5 15 14 18 17 18 14 14 11 4 7 3 4 5 6 11 15 8 3 6 8 4 3 24 26 31
16 16 16 16 14 13 13 13 12 12 10 13 11 8 12 7 11 19 13 12 13 23 18 20 17 16 12 13 4 5 2 7 8 11 13 12 8 7 3 9 9 12 25 31 29
16 16 16 16 15 15 13 13 13 12 12 11 11 5 6 7 12 0 23 16 19 28 20 20 17 15 16 9 6 5 4 2 11 12 14 14 13 6 6 8 13 18 25 26 27
15 16 16 17 16 16 15 14 14 13 11 10 7 8 3 6 2 9 7 18 23 25 21 19 15 16 14 12 7 5 9 7 6 8 8 10 14 10 6 5 8 16 23 25 22
17 17 17 17 18 17 17 16 14 13 11 9 6 6 3 8 9 2 10 20 23 23 22 17 17 17 15 13 13 5 12 2 3 8 11 12 12 13 11 7 8 16 24 23 20
18 19 18 18 18 18 18 19 16 14 11 7 4 3 7 13 5 5 15 21 26 24 21 18 13 15 11 9 8 10 9 2 3 8 10 12 13 11 7 12 13 20 25 22 20
19 19 18 19 18 17 18 19 16 12 10 7 6 5 11 6 0 9 16 22 25 21 18 18 12 9 12 10 11 3 10 8 7 10 10 16 12 12 9 14 18 20 22 20 19
19 19 20 20 19 17 17 14 10 9 7 7 6 8 7 3 7 12 16 19 20 19 16 13 7 13 10 3 10 13 13 11 12 13 8 9 10 17 11 13 19 22 20 18 18
20 21 21 20 19 16 10 6 6 2 7 7 7 12 6 8 14 14 14 17 17 16 14 9 13 15 13 11 13 14 14 16 12 8 12 8 17 18 17 15 16 17 18 18 17
21 20 19 17 16 10 2 5 9 9 6 6 10 7 9 14 16 14 15 16 16 14 10 13 11 14 12 14 16 18 18 19 10 10 13 13 19 19 16 17 14 17 13 16 16
21 18 15 13 10 4 5 3 6 7 12 7 11 10 11 18 17 15 15 17 15 16 13 17 14 17 20 21 21 16 15 13 11 15 10 11 19 19 16 16 17 16 15 11 16
17 14 10 7 5 9 5 6 9 8 8 14 5 3 6 18 16 15 19 15 14 16 18 13 18 17 17 16 14 19 19 18 4 10 8 14 17 16 17 14 16 15 16 12 17
14 8 6 1 2 5 9 6 8 7 7 12 11 14 12 21 15 18 21 16 18 19 20 15 15 15 14 16 15 18 16 14 11 9 14 13 17 19 10 8 9 15 15 14 15
11 6 4 2 4 2 7 4 8 4 6 12 12 9 19 18 15 20 24 11 13 20 18 15 9 14 12 17 18 17 17 19 20 14 12 18 9 18 22 13 14 10 8 12 16
9 5 2 5 12 11 6 9 9 5 6 14 15 16 14 21 18 18 21 15 15 14 13 16 13 14 18 17 19 13 9 6 10 16 11 21 9 12 18 16 16 17 16 17 13
6 4 4 6 9 10 7 9 6 8 2 8 10 13 19 20 15 21 18 9 10 13 14 12 11 14 18 16 17 4 18 13 12 14 13 14 11 13 15 15 16 11 12 16 19
6 2 3 8 10 10 9 9 8 4 8 9 10 16 20 15 18 19 19 16 12 14 14 7 16 16 11 16 13 9 13 11 11 13 11 18 7 8 13 6 9 8 11 14 18
8 11 9 9 10 9 9 11 1 12 8 2 5 12 18 17 18 20 19 17 10 17 16 12 15 10 13 15 14 18 21 13 13 14 14 11 11 10 13 10 11 12 6 7 18
7 9 13 5 7 8 8 9 8 8 6 6 6 17 12 16 11 17 13 12 6 5 8 14 12 10 4 14 8 18 20 25 15 17 14 13 15 13 13 13 14 7 8 13 6
7 10 2 6 7 11 10 2 7 6 1 13 14 12 11 12 12 16 8 4 3 4 9 10 13 14 10 9 13 12 15 19 10 14 16 16 18 13 14 12 8 10 11 13 15
10 6 6 5 9 10 3 11 7 7 3 7 20 6 14 4 8 6 3 7 4 7 8 10 3 11 9 14 17 11 12 15 14 15 12 13 9 18 14 11 10 9 10 12 14
8 5 9 5 9 3 8 5 3 3 2 1 6 9 8 5 1 4 6 8 4 7 10 6 8 11 17 5 4 11 11 17 11 18 14 5 10 15 14 17 13 11 10 11 12
3 4 5 10 6 6 6 8 8 2 5 3 3 6 5 15 7 9 8 2 4 4 5 3 10 7 6 7 8 11 12 10 15 16 12 15 11 17 10 17 16 13 12 12 14
4 2 4 4 5 6 4 3 8 3 5 5 1 3 8 8 6 9 8 4 4 2 7 5 13 6 5 2 12 18 7 10 13 11 11 3 24 20 18 17 13 14 13 13 14
4 4 5 6 7 7 4 2 2 5 3 1 3 3 3 3 6 9 10 8 6 5 3 5 9 5 5 6 7 8 10 7 15 17 9 18 20 20 16 17 16 12 12 14 14
2 1 4 5 1 4 2 7 6 6 9 5 4 1 4 4 8 7 5 7 5 3 3 4 6 7 7 0 0 5 7 5 5 4 8 18 17 16 15 13 12 13 13 12 12
3 2 5 4 2 5 7 5 5 3 7 6 3 2 7 7 6 7 6 4 3 6 3 5 4 7 13 5 5 10 12 11 7 5 9 17 18 15 15 14 12 11 11 11 11
Wind_Direction
338 333 328 329 329 327 327 321 318 318 321 314 316 323 306 294 276 242 239 253 203 194 165 181 188 197 207 219 238 245 281 58 43 124 127 128 117 351 279 128 205 109 138 139 148
334 333 331 330 328 325 321 319 314 311 312 313 309 326 324 304 269 251 232 218 204 173 187 179 188 191 199 214 212 216 219 38 57 107 139 129 125 145 175 138 122 116 129 141 152
334 333 330 328 325 320 317 316 310 303 304 305 307 308 338 315 273 156 201 213 192 179 198 190 189 196 220 179 196 247 126 107 73 92 119 136 135 139 172 128 143 141 144 151 155
331 330 329 326 322 318 315 310 305 297 297 298 300 292 315 269 258 102 175 190 183 185 207 205 198 210 226 212 155 227 217 158 112 133 118 128 126 159 172 122 136 147 154 155 161
326 325 323 321 318 317 313 309 301 293 286 287 287 290 290 223 256 156 176 175 177 190 203 198 203 210 220 207 150 186 258 181 156 144 108 124 142 146 119 115 134 154 161 160 165
324 320 320 317 314 314 311 305 296 286 276 267 254 253 247 247 23 150 161 164 178 195 196 200 206 217 264 223 181 201 235 194 211 149 132 136 134 130 129 124 142 166 160 164 163
323 320 318 315 311 312 308 302 293 275 263 237 217 219 259 286 107 158 171 173 179 194 192 201 216 205 233 215 189 227 225 209 172 137 143 141 131 113 135 136 149 163 163 162 163
325 323 319 316 313 310 309 306 302 265 231 204 202 222 281 143 177 168 175 172 182 198 202 196 211 233 261 194 189 220 241 185 142 168 141 190 118 131 146 156 160 163 162 162 166
323 322 320 316 312 310 315 28 27 159 169 165 214 222 233 144 180 173 179 170 173 190 199 162 233 222 218 226 209 207 205 134 167 163 152 135 131 138 145 152 164 171 165 169 169
324 322 318 317 314 317 174 112 106 104 137 195 272 220 210 189 172 169 172 178 172 162 160 204 210 213 215 215 202 195 227 152 167 181 202 120 120 151 158 155 176 184 172 176 176
328 323 322 323 325 164 146 181 201 186 205 257 159 267 149 161 152 181 172 176 183 181 193 198 208 208 203 211 231 218 217 250 159 151 176 160 133 155 170 190 172 181 187 197 185
335 332 331 344 31 173 240 271 30 335 264 212 258 311 146 152 173 174 177 181 195 199 205 185 220 202 220 213 242 256 215 173 95 148 222 135 137 142 172 159 168 183 177 201 199
341 344 342 347 176 207 268 1 331 317 252 163 197 206 195 191 184 170 187 199 196 207 204 203 202 217 215 203 215 237 218 140 166 178 233 167 135 140 165 156 167 173 198 189 213
346 354 344 230 248 309 248 336 319 312 266 143 187 213 179 206 195 177 205 196 198 208 200 224 210 195 207 197 216 206 231 153 214 190 194 196 160 166 154 168 172 174 185 220 217
338 342 286 249 315 272 338 311 320 248 247 149 156 143 186 207 146 177 203 215 208 207 198 205 185 189 206 212 211 224 170 205 192 217 202 195 123 306 151 161 174 170 210 195 210
331 335 292 261 245 270 302 294 242 232 148 160 154 194 176 218 160 164 199 243 247 207 207 224 215 197 207 214 202 281 164 197 223 238 239 219 192 204 167 173 178 186 180 212 179
265 313 309 282 305 306 287 253 225 261 242 140 178 192 192 180 172 168 191 195 205 183 197 192 193 203 238 198 195 172 194 193 209 218 226 219 161 102 73 58 102 158 207 193 191
293 248 287 269 296 285 250 241 149 271 39 26 280 207 203 175 159 178 185 198 217 219 183 185 188 170 210 231 184 205 208 204 193 206 207 207 138 118 122 115 73 24 1 264 202
304 242 258 322 292 261 260 272 274 55 330 317 218 282 208 173 174 179 194 185 158 278 325 182 168 127 260 250 265 192 234 227 271 208 211 133 91 125 115 94 65 47 357 1 282
286 261 206 320 285 256 256 6 74 46 313 260 178 303 182 176 209 196 157 39 166 236 291 304 132 191 173 233 254 269 226 239 245 249 213 134 160 147 140 97 67 40 28 18 354
256 247 68 310 264 252 206 74 87 87 321 323 177 214 293 191 212 172 66 89 309 301 283 308 257 162 180 205 208 213 241 244 246 260 213 154 117 114 115 99 88 59 39 23 33
274 265 18 266 254 320 47 19 284 66 153 81 321 159 184 243 343 142 122 26 356 308 259 245 285 163 203 92 314 301 242 218 243 230 271 2 95 100 132 123 99 82 55 43 43
322 22 21 286 283 96 113 93 34 79 27 32 89 306 238 179 207 268 136 63 24 344 13 319 254 142 184 191 209 236 219 270 255 273 269 251 137 128 130 98 93 89 74 57 50
286 224 95 49 8 97 131 95 124 61 74 69 33 206 193 187 181 190 149 138 92 39 313 291 279 253 13 76 202 207 226 233 270 241 244 196 138 144 135 115 96 98 88 75 59
335 56 345 27 53 59 54 14 89 108 116 338 107 352 330 187 167 167 147 142 183 148 229 288 264 320 60 13 358 167 200 218 237 253 308 129 145 142 130 119 120 99 84 79 74
7 79 106 101 313 150 133 54 67 61 343 79 92 84 243 64 349 140 180 193 147 170 230 233 255 259 205 296 289 227 169 265 285 281 253 120 109 112 109 116 110 109 103 84 73
66 85 285 176 203 56 38 49 80 68 60 37 9 131 103 59 17 28 358 35 78 277 182 262 236 224 243 149 247 239 216 210 189 232 260 155 141 137 145 133 118 108 88 79 70
Height
804 802 799 796 794 792 790 788 786 785 783 780 779 778 777 774 773 774 768 762 763 763 766 766 765 765 762 756 757 755 779 777 767 766 774 772 785 785 781 778 772 769 774 785 795
803 800 798 795 793 790 788 786 784 783 781 779 778 776 776 774 774 765 760 759 761 763 764 761 762 760 758 752 755 762 776 770 751 749 766 771 785 787 786 778 778 773 780 791 797
801 798 796 794 791 789 787 784 782 780 779 778 777 775 775 774 768 746 749 756 759 762 760 759 757 756 754 748 755 757 771 754 748 748 753 771 785 785 786 789 778 783 785 793 798
799 797 794 791 789 787 785 783 780 778 777 776 775 775 773 777 756 747 752 754 757 762 759 755 753 757 751 754 755 766 753 750 749 746 753 766 775 785 786 787 776 781 787 793 798
798 795 792 789 787 785 782 780 777 775 774 774 774 774 774 765 751 749 750 754 759 761 755 752 754 751 753 745 755 764 749 743 744 743 755 761 773 782 786 781 782 786 789 793 797
797 794 790 787 784 782 779 777 775 772 772 772 773 773 773 761 748 751 752 755 757 757 753 752 749 743 744 742 753 743 741 742 738 740 752 769 771 772 788 784 788 787 789 793 796
795 791 788 785 782 778 776 773 771 769 770 771 772 773 766 749 749 751 754 753 755 753 750 750 748 748 742 749 737 742 752 743 740 743 753 753 779 786 789 788 792 788 790 793 797
791 788 785 782 779 775 772 770 768 767 768 770 771 773 750 750 750 751 752 751 754 753 751 752 753 747 745 736 743 752 748 764 744 745 749 757 795 790 795 794 792 788 789 794 797
789 785 782 778 776 772 769 768 765 766 767 769 772 766 746 752 750 750 750 751 752 752 752 755 756 750 748 753 760 750 756 760 754 741 748 765 789 786 789 797 793 791 789 793 797
787 783 779 775 772 771 770 768 768 769 769 771 767 763 748 745 746 750 751 752 751 752 757 759 753 755 748 754 766 755 748 741 758 747 742 767 773 786 789 797 798 792 794 795 798
784 780 775 773 771 770 771 771 769 764 763 740 740 737 734 738 747 749 750 751 751 753 761 755 759 761 748 740 726 726 733 747 761 729 744 761 767 786 795 793 794 796 797 797 798
780 777 774 772 771 771 769 755 756 758 749 742 740 737 734 739 746 744 749 752 755 759 747 759 761 738 731 730 733 731 729 738 746 729 740 746 763 774 780 780 787 792 796 799 795
778 776 774 772 771 770 765 759 760 757 749 737 737 739 739 738 739 743 743 740 752 754 748 753 743 729 735 739 746 734 727 734 744 744 736 748 771 779 787 778 782 788 791 797 793
778 775 774 772 775 763 758 760 758 758 751 742 740 733 734 735 738 735 739 736 743 750 744 745 726 736 743 746 741 747 719 728 739 753 763 736 779 768 778 789 786 791 795 793 794
778 775 773 771 768 760 760 758 758 757 763 731 731 723 728 731 724 739 737 733 741 739 744 747 738 747 754 744 738 736 722 733 741 749 745 748 790 810 760 786 786 790 792 790 793
777 775 772 771 768 762 760 759 758 766 763 740 727 734 734 727 729 733 737 731 724 734 739 730 726 737 738 731 732 728 732 746 746 745 761 738 751 812 770 772 773 781 788 784 788
775 774 771 768 759 759 759 755 759 758 740 743 737 732 730 730 730 737 744 747 745 756 760 742 741 732 728 740 736 743 754 777 784 774 765 730 750 791 767 766 765 775 773 770 777
772 770 768 765 762 758 756 751 776 756 747 733 741 738 734 725 731 738 743 744 732 731 742 758 768 742 735 735 749 749 746 758 788 773 757 721 766 784 771 770 772 778 772 772 764
769 766 763 759 758 756 753 763 781 753 763 745 755 760 737 729 730 733 739 739 737 737 758 745 754 741 742 736 743 746 751 717 734 724 740 749 781 774 773 779 795 804 794 776 764
767 755 753 756 754 751 748 764 756 761 764 752 770 759 751 743 741 738 740 749 747 745 741 735 759 749 750 750 743 747 730 748 738 760 761 756 778 775 784 792 808 810 803 792 775
763 747 751 752 750 742 763 753 759 765 760 758 766 767 762 747 747 746 749 759 757 747 742 733 738 758 754 756 753 750 751 735 727 724 740 773 776 759 786 800 811 814 812 806 796
750 748 750 750 748 742 748 755 771 762 759 759 754 749 762 759 757 759 759 763 763 753 751 740 741 758 757 744 746 743 742 742 753 754 730 746 792 772 783 791 807 815 816 810 804
750 749 751 746 750 752 761 765 764 762 764 761 762 757 749 760 776 759 767 770 766 759 758 752 750 760 768 762 753 757 747 745 734 728 747 746 791 779 787 789 801 814 815 815 810
752 752 752 748 748 754 762 764 770 770 769 767 768 759 758 760 751 763 764 769 767 772 780 769 747 751 774 753 745 763 757 757 752 758 749 744 783 784 791 804 811 814 817 817 816
757 765 764 763 762 761 762 766 769 771 769 768 772 769 761 763 760 762 761 769 768 777 769 763 770 761 763 764 751 750 760 765 766 754 761 773 779 779 786 794 810 815 816 817 819
759 763 763 769 769 765 777 774 774 776 771 774 776 773 767 766 771 769 761 763 766 768 768 762 773 771 773 774 771 774 771 774 764 761 759 763 788 783 789 798 804 811 819 824 825
771 771 761 781 766 765 776 778 782 782 783 782 780 775 779 785 778 772 770 766 770 772 774 775 768 781 781 771 775 785 769 772 769 766 758 773 786 791 801 805 811 816 822 826 828